This is the latest recevied weather packets stored in our database for station/object KE9ADS. If no packets are shown the sender has not sent any weather packets the latest 10 day(s).
| Time | Temp. | Humidity | Pressure | Rain* | Wind** | Luminosity | Snow |
|---|---|---|---|---|---|---|---|
| 1777777628 | 9.44° C | 48% | 1019.6 hPa | 0 mm | - | 0 W/m² | - |
| 1777777027 | 9.44° C | 48% | 1019.7 hPa | 0 mm | - | 0 W/m² | - |
| 1777776427 | 8.89° C | 51% | 1019.8 hPa | 0 mm | - | 0 W/m² | - |
| 1777775827 | 9.44° C | 48% | 1019.7 hPa | 0 mm | - | 0 W/m² | - |
| 1777775226 | 9.44° C | 46% | 1019.7 hPa | 0 mm | - | 0 W/m² | - |
| 1777774622 | 9.44° C | 51% | 1019.8 hPa | 0 mm | - | 0 W/m² | - |
| 1777774022 | 9.44° C | 49% | 1019.6 hPa | 0 mm | - | 0 W/m² | - |
| 1777773421 | 10° C | 46% | 1019.7 hPa | 0 mm | - | 0 W/m² | - |
| 1777772820 | 10.56° C | 42% | 1019.6 hPa | 0 mm | - | 0 W/m² | - |
| 1777772215 | 10.56° C | 41% | 1019.6 hPa | 0 mm | - | 0 W/m² | - |
| 1777771615 | 11.11° C | 40% | 1019.6 hPa | 0 mm | - | 0 W/m² | - |
| 1777771014 | 11.67° C | 39% | 1019.5 hPa | 0 mm | - | 0 W/m² | - |
| 1777770413 | 12.22° C | 37% | 1019.7 hPa | 0 mm | - | 1 W/m² | - |
| 1777769814 | 12.78° C | 36% | 1019.6 hPa | 0 mm | - | 3 W/m² | - |
| 1777769212 | 12.78° C | 35% | 1019.6 hPa | 0 mm | - | 6 W/m² | - |
| 1777768608 | 13.33° C | 34% | 1019.7 hPa | 0 mm | - | 10 W/m² | - |
| 1777768007 | 13.33° C | 33% | 1019.7 hPa | 0 mm | - | 14 W/m² | - |
| 1777767405 | 13.89° C | 33% | 1019.7 hPa | 0 mm | - | 18 W/m² | - |
| 1777766801 | 13.89° C | 32% | 1019.6 hPa | 0 mm | - | 21 W/m² | - |
| 1777766199 | 14.44° C | 32% | 1019.8 hPa | 0 mm | - | 24 W/m² | - |
| 1777765599 | 14.44° C | 32% | 1019.9 hPa | 0 mm | - | 27 W/m² | - |
| 1777764998 | 14.44° C | 32% | 1020 hPa | 0 mm | - | 29 W/m² | - |
| 1777764397 | 15° C | 33% | 1020.1 hPa | 0 mm | - | 32 W/m² | - |
| 1777763797 | 15° C | 31% | 1020 hPa | 0 mm | - | 34 W/m² | - |
| 1777763193 | 15° C | 33% | 1020.1 hPa | 0 mm | - | 36 W/m² | - |
* Rain latest hour (hover to see other rain measurements)
** Current wind speed in m/s (hover to see current wind gust speed)